Torna al catalogo

COSMOS 2234

GLONASS

AttivoNavigazioneMEO
NORAD 22512·PAYLOAD·🇷🇺 Russia

Lanciato Feb 17, 1993 da Baikonur Cosmodrome

Loading…

Prossimi Passaggi (prossime 24 ore)

TLE

AggiornatoSource: Space-Track

Epoca: Sep 14, 2026, 13:31 UTC

1 22512U 93010A   26257.56362380 -.00000014  00000-0  00000-0 0  9996
2 22512  64.9610  67.0166 0022875 213.7850 141.8424  2.13103582261037

Traccia COSMOS 2234 in tempo reale con AllMySat

Download on the App Store